Flag for Norway Weather past 2 weeks in Bergen, Norway

Now
61 °F

Cool.


Feels Like: 61 °F
Forecast: 59 / 67 °F
Wind: 3 mph from South

Location: Bergen / Florida

Current Time: Jul 31, 2014 at 2:24:36 PM

Latest Report: Jul 31, 2014 at 1:00 PM


Visibility: N/A

Pressure: 29.70 "Hg

Humidity: 79%

Dew point: 55 °F

Location of BergenLocation

Historic Weather in Bergen — Graph

°F

Bergen temperature yesterday

Maximum temperature yesterday: 65 °F (at 12:00 PM)
Minimum temperature yesterday: 57 °F (at 9:00 PM)
Average temperature yesterday: 60 °F

Past Weeks' High & Low Weather Summary

 TemperatureHumidityPressure
High87 °F (Jul 24, 5:00 PM)88% (Jul 19, 6:00 AM)30.34 "Hg (Jul 19, 6:00 AM)
Low56 °F (Jul 19, 6:00 AM)26% (Jul 21, 12:00 PM)29.64 "Hg (Jul 31, 5:00 AM)
Average68 °F67%30.03 "Hg
* Reported Jul 16 1:00 PM — Jul 31 1:00 PM, Bergen, Weather by CustomWeather, © 2014

Note: Actual official high and low records may vary slightly from our data, if they occured in-between our weather recording intervals... More about our weather records

Advertising

Bergen weather history for previous 24 hours

 ConditionsComfort  
Time TempWeatherWind HumidityBarometerVisibility
1:00 PM
Jul 31
61 °FCool.3 mph79%29.70 "HgN/A
12:00 PM60 °FCool.5 mph77%29.69 "HgN/A
11:00 AM61 °FOvercast.2 mph82%29.68 "Hg19 mi
10:00 AM59 °FCool.3 mph82%29.67 "HgN/A
9:00 AM58 °FCool.2 mph83%29.66 "HgN/A
8:00 AM58 °FPartly sunny.2 mph86%29.65 "Hg19 mi
7:00 AM57 °FCool.1 mph87%29.65 "HgN/A
6:00 AM57 °FCool.2 mph87%29.64 "HgN/A
5:00 AM57 °FCool.1 mph87%29.64 "HgN/A
4:00 AM57 °FCool.2 mph87%29.64 "HgN/A
3:00 AM58 °FCool.1 mph87%29.64 "HgN/A
2:00 AM57 °FCool.2 mph86%29.64 "HgN/A
1:00 AM57 °FCool.3 mph86%29.64 "HgN/A
12:00 AM57 °FCool.5 mph86%29.65 "HgN/A
11:00 PM
Jul 30
58 °FOvercast.6 mph84%29.66 "Hg16 mi
10:00 PM58 °FCool.5 mph84%29.66 "HgN/A
9:00 PM57 °FCool.3 mph84%29.67 "HgN/A
8:00 PM57 °FRain showers. Overcast.5 mph82%29.67 "Hg11 mi
7:00 PM62 °FCool.5 mph69%29.66 "HgN/A
6:00 PM62 °FMild.3 mph77%29.67 "HgN/A
5:00 PM60 °FOvercast.5 mph82%29.69 "Hg16 mi
4:00 PM58 °FCool.5 mph82%29.69 "HgN/A
3:00 PM61 °FCool.5 mph78%29.69 "HgN/A
2:00 PM61 °FSprinkles. Overcast.2 mph79%29.70 "Hg16 mi
Weather by CustomWeather, © 2014

See weather overviewHow to use our weather pages